Location: Milton Keynes
(52.0316°N, 0.7531°W)
Time: 23:44:43
(UTC+00:00)

OTV 5 (USA 277) - Pass Details

Date: 02 February 2019
Orbit: 342 x 346 km, 54.5° (Epoch: 17 February)

Event Time Altitude Azimuth Distance (km) Brightness Sun altitude
Exits shadow 06:30:02 20° 278° (W) 876 ? -11.2°
Maximum altitude 06:31:48 54° 351° (N) 424 ? -11.0°
Drops below altitude 10° 06:34:39 10° 70° (ENE) 1,300 ? -10.5°
Sets 06:36:40 0° 75° (ENE) 2,141 ? -10.2°
